Showing default

ROCK, 60474

Orbit data source: Space-Track

ROCK, 60474 is an American payload satellite in SSO that was launched on Fri, 16 Aug 2024 UTC via an FALCON 9 launch vehicle from the Air Force Western Test Range (AFWTR). Payload-class satellites include a variety of spacecraft equipped with specific instruments for various scientific and technological missions. These include communications satellites like Starlink; space stations such as the ISS; scientific satellites like the Hubble; Earth observation satellites from companies like Planet Labs, Umbra, and HawkEye 360; GPS; miniature CubeSats for education and research; and military/defense satellites.

Loading next visibility...
Identifier
60474, 2024-149G
Orbit
SSO
Country
Flag of USUS
Related business
Manufacturer
ARRAY
Mission
Operational Commercial Technology
Bus & Motor
CUBESAT 1.5U, Unknown motor
Mass
1.83 kg wet, 1.83 kg dry
Launch date (UTC)
2024-08-16 (2 years ago)
Launch vehicle
FALCON 9
Launch site
Air Force Western Test Range (AFWTR)
Object type
Payload
Rocket body
Debris
Shape & HBR
Box, 0.1 m
Radar Cross Section
0.015 m², Small (<0.1 m²)

Expand to show TLE details & history
Last TLE update: 14 hours ago

TLE from 14 hours ago
0 ROCK
1 60474U 24149G   26133.20468116  .00008487  00000-0  22441-3 0  9997
2 60474  97.3774 216.3458 0002151  57.7935 302.3518 15.38660215 96884
Epoch: 2026-05-13T04:54Z
TLE epoch observation values (Epoch: 2026-05-13T04:54:44.452Z)
Latitude
-0.00007°
Longitude
-88.30746°
Altitude
452.401 km
Speed
7.641 km/s
True Right ascension
14h 25m 22s
True Declination
0° 00' 00"
Sunlit
Object was in full shadow at epoch
Visualization orbit readout
Latitude
Unknown
Longitude
Unknown
Altitude
Unknown
Speed
Unknown
Apparent Right ascension
Unknown
Apparent Declination
Unknown
Sunlit
N/A
Visualization observer readout
Local Sidereal Time
02:57:07
Azimuth
Unknown
Elevation
Unknown
Doppler factor
Unknown
Orbital elements
Apogee altitude
448.478 km
Perigee altitude
445.542 km
Semi-major axis
6,825.147 km
Eccentricity
0.00022
Inclination
97.3774°
RAAN
216.3458°
Arg. of periapsis
57.7935°
True anomaly
302.33097°
Mean anomaly
302.3518°
Eccentric anomaly
302.34139°
Mean motion
3.84924 °/min
Orbital period
93.52 mins
BSTAR
0.00022441
Loading maneuver chart data...
Computing Atmospheric mass density...
Loading historical data...
Loading historical data...
Loading historical data...
Loading historical data...
Loading historical data...
Loading historical data...
Loading historical data...

Documentation

Showing up to 5 results
|